{"data":{"norad_id":67534,"intl_designator":"2026-014C","name":"STARLINK-36576","alt_names":[],"object_type":"PAYLOAD","status":"ACTIVE","operator":null,"country":"US","launch_date":"2026-01-22","launch_site_code":"AFWTR","launch_vehicle":null,"mission":null,"orbit_class":"UNKNOWN","rcs_meters":null,"size_class":null,"mass_kg":null,"dimensions":null,"purposes":["comms"],"wikipedia_slug":null,"has_3d_model":false,"image_url":null,"decayed_at":null,"tle_current":{"epoch":"2026-05-25T02:36:21.045024Z","epoch_age_seconds":59580,"freshness":"FRESH","line1":"1 67534U 26014C   26145.10857691  .00019376  00000+0  60069-3 0  9992","line2":"2 67534  97.2871  32.1371 0001124  73.3182 286.8184 15.33459542 20493","mean_motion":15.33459542,"eccentricity":0.0001124,"inclination_deg":97.2871,"raan_deg":32.1371,"arg_perigee_deg":73.3182,"mean_anomaly_deg":286.8184,"bstar":0.00060069,"rev_number":2049,"period_min":93.905314131855,"perigee_km":464.73068327075,"apogee_km":466.26913284769,"semimajor_km":6843.6369080592,"source":"CELESTRAK","updated_at":"2026-05-25T13:38:21.606599Z"}}}